This is the latest recevied weather packets stored in our database for station/object KD8OZS. If no packets are shown the sender has not sent any weather packets the latest 10 day(s).
| Time | Temp. | Humidity | Pressure | Rain* | Wind** | Luminosity | Snow |
|---|---|---|---|---|---|---|---|
| 1778107189 | 11.67° C | 59% | 1005.5 hPa | 0 mm | - | 56 W/m² | - |
| 1778106885 | 11.67° C | 58% | 1005.4 hPa | 0 mm | - | 54 W/m² | - |
| 1778106582 | 12.22° C | 59% | 1005.3 hPa | 0 mm | - | 51 W/m² | - |
| 1778106279 | 12.22° C | 58% | 1005.4 hPa | 0 mm | - | 52 W/m² | - |
| 1778105975 | 12.22° C | 57% | 1005.4 hPa | 0 mm | - | 75 W/m² | - |
| 1778105672 | 12.22° C | 57% | 1005.2 hPa | 0 mm | - | 62 W/m² | - |
| 1778105371 | 12.22° C | 57% | 1005.1 hPa | 0 mm | - | 69 W/m² | - |
| 1778105066 | 12.22° C | 54% | 1004.8 hPa | 0 mm | - | 71 W/m² | - |
| 1778104762 | 12.22° C | 54% | 1004.9 hPa | 0 mm | - | 110 W/m² | - |
| 1778104459 | 12.22° C | 55% | 1004.8 hPa | 0 mm | - | 92 W/m² | - |
| 1778104155 | 12.22° C | 57% | 1004.8 hPa | 0 mm | - | 68 W/m² | - |
| 1778103852 | 12.78° C | 56% | 1004.8 hPa | 0 mm | - | 65 W/m² | - |
| 1778103549 | 12.78° C | 56% | 1004.8 hPa | 0 mm | - | 122 W/m² | - |
| 1778103247 | 12.78° C | 54% | 1004.9 hPa | 0 mm | - | 102 W/m² | - |
| 1778102944 | 12.78° C | 55% | 1004.8 hPa | 0 mm | - | 99 W/m² | - |
| 1778102640 | 12.78° C | 57% | 1004.7 hPa | 0 mm | - | 123 W/m² | - |
| 1778102334 | 12.78° C | 57% | 1004.6 hPa | 0 mm | - | 167 W/m² | - |
| 1778102031 | 12.78° C | 59% | 1004.5 hPa | 0 mm | - | 113 W/m² | - |
| 1778101728 | 12.78° C | 57% | 1004.5 hPa | 0 mm | - | 86 W/m² | - |
| 1778101425 | 13.33° C | 58% | 1004.3 hPa | 0 mm | - | 101 W/m² | - |
| 1778101122 | 13.33° C | 58% | 1004.3 hPa | 0 mm | - | 277 W/m² | - |
| 1778100818 | 12.78° C | 55% | 1004.3 hPa | 0 mm | - | 201 W/m² | - |
| 1778100515 | 13.33° C | 61% | 1004.3 hPa | 0 mm | - | 140 W/m² | - |
| 1778100212 | 12.78° C | 60% | 1004.1 hPa | 0 mm | - | 150 W/m² | - |
| 1778099910 | 12.78° C | 56% | 1004.1 hPa | 0 mm | - | 125 W/m² | - |
* Rain latest hour (hover to see other rain measurements)
** Current wind speed in m/s (hover to see current wind gust speed)